Regional Weather Roundup
Issued by NWS Charleston, WV

Home | Current Version | Previous Version | Graphics & Text | Print | Product List | Glossary On
Versions: 1 2 3 4 5 6 7 8 9 10 11 12 13 14 15 16 17 18 19 20 21 22 23 24 25 26 27 28 29 30 31 32 33 34 35 36 37 38 39 40 41 42 43 44 45 46 47 48 49 50
000
ASUS41 KRLX 221710
RWRRLX
West Virginia Regional Weather Roundup
National Weather Service Charleston WV
100 PM EDT MON MAY 22 2017

Note: "fair" indicates few or no clouds below 12,000 feet with no
significant weather and/or obstructions to visibility.

WVZ003-221800-
Northern Panhandle of West Virginia

CITY           SKY/WX    TMP DP  RH WIND       PRES   REMARKS
WHEELING       MOSUNNY   62  45  53 W15G22    30.06F
$$

WVZ009-221800-
Northwest West Virginia

CITY           SKY/WX    TMP DP  RH WIND       PRES   REMARKS
PARKERSBURG    MOSUNNY   66  48  52 NW8       30.11F
$$

WVZ006-221800-
Western West Virginia

CITY           SKY/WX    TMP DP  RH WIND       PRES   REMARKS
HUNTINGTON     CLOUDY    65  46  50 W8        30.11F
$$

WVZ015-221800-
West Central West Virginia

CITY           SKY/WX    TMP DP  RH WIND       PRES   REMARKS
CHARLESTON     PTSUNNY   68  54  60 VRB5      30.09F
$$

WVZ022-031-221800-
North Central West Virginia

CITY           SKY/WX    TMP DP  RH WIND       PRES   REMARKS
CLARKSBURG     CLOUDY    68  55  63 W12G18    30.06F
MORGANTOWN     MOSUNNY   68  54  60 VRB5G18   30.06F
$$

WVZ025-035-042-045-221800-
Southern West Virginia

CITY           SKY/WX    TMP DP  RH WIND       PRES   REMARKS
BECKLEY        CLOUDY    66  55  67 W10       30.11F
LOGAN          CLOUDY    66  57  72 VRB6      30.11F
BLUEFIELD      CLOUDY    63  56  78 W9        30.14S
LEWISBURG      MOSUNNY   68  56  65 NW7       30.09F
$$

WVZ047-221800-
Northern Mountains of West Virginia

CITY           SKY/WX    TMP DP  RH WIND       PRES   REMARKS
ELKINS         PTSUNNY   69  55  60 W8        30.07F
$$

WVZ052-221800-
Eastern Panhandle of West Virginia

CITY           SKY/WX    TMP DP  RH WIND       PRES   REMARKS
MARTINSBURG    CLOUDY    69  62  78 CALM      30.00F
PETERSBURG     CLOUDY    79  60  53 W12G18    30.00S
$$



USA.gov is the U.S. government's official web portal to all federal, state and local government web resources and services.